Tracking 19149 objects as of 22-Apr-2018
HD Live streaming from Space Station
objects crossing your sky now

COSMOS 1195

Track COSMOS 1195 now!
10-day predictions
COSMOS 1195 is classified as:


NORAD ID: 11878
Int'l Code: 1980-058D
Perigee: 1,456.3 km
Apogee: 1,482.1 km
Inclination: 74.0 °
Period: 115.1 minutes
Semi major axis: 7840 km
RCS: 0.7127 m2 (medium)
Launch date: July 9, 1980
Source: Commonwealth of Independent States (former USSR) (CIS)
Launch site: PLESETSK MISSILE AND SPACE COMPLEX (PKMTR)
aabbcc
Your satellite tracking list
Your tracking list is empty




NASA's NSSDC Master Catalog

Two Line Element Set (TLE):
1 11878U 80058D   18111.91245333 -.00000011 +00000-0 +34546-4 0  9997
2 11878 074.0159 296.9782 0016455 251.2065 263.1487 12.50570815725018
Source of the keplerian elements: AFSPC